Location: Roanoke
(37.2710°N, 79.9420°W)
Time: 18:56:46
(UTC-05:00)

Courier 1B Rocket - Pass Details

Date: 25 November 2019
Orbit: 920 x 1202 km, 28.2° (Epoch: 07 December)

Event Time Altitude Azimuth Distance (km) Brightness Sun altitude
Rises 16:10:54 0° 262° (W) 3,734 9.3 8.3°
Reaches altitude 10° 16:13:46 10° 253° (WSW) 2,826 9.3 7.9°
Maximum altitude 16:19:52 34° 192° (SSW) 1,712 7.0 6.9°
Drops below altitude 10° 16:26:20 10° 131° (SE) 3,007 7.4 5.8°
Sets 16:29:30 0° 122° (ESE) 4,005 7.9 5.2°
